Regional Weather Roundup
Issued by NWS Austin/San Antonio, TX

Home | Current Version | Previous Version | Graphics & Text | Print | Product List | Glossary On
Versions: 1 2 3 4 5 6 7 8 9 10 11 12 13 14 15 16 17 18 19 20 21 22 23 24 25 26 27 28 29 30 31 32 33 34 35 36 37 38 39 40 41 42 43 44 45 46 47 48 49 50
000
ASUS44 KEWX 280511
RWREWX
SOUTH TEXAS REGIONAL WEATHER ROUNDUP
NATIONAL WEATHER SERVICE AUSTIN/SAN ANTONIO TX
1200 AM CDT THU MAY 28 2020

NOTE: "FAIR" INDICATED FEW OR NO CLOUDS BELOW 12,000 FEET WITH NO
SIGNIFICANT WEATHER AND/OR OBSTRUCTIONS TO VISIBILITY.

* - THESE STATIONS ARE NOT NWS OR FAA STATIONS...AND ARE NOT SUBJECT
    TO NWS AND FAA QUALITY CONTROL.

TXZ171-172-183>190-280600-
TEXAS HILL COUNTRY AND EDWARDS PLATEAU

CITY           SKY/WX    TMP DP  RH WIND       PRES   REMARKS
JUNCTION       MOCLDY    67  65  93 NE3       29.94R
*LLANO         CLOUDY    66  64  94 CALM      29.95F
BURNET         CLOUDY    65  62  90 E6        29.95R
*HORSESHOE BAY CLOUDY    66  64  94 S5        29.92F
*LAGO VISTA    CLOUDY    65  64  97 SE10G18   29.91F
*KERRVILLE     CLOUDY    64  61  91 CALM      29.93S
*FREDERICKSBRG CLOUDY    64  64  98 CALM      29.94S
*ROCKSPRINGS   CLOUDY    72  61  68 E9G22     29.99S
*BOERNE        CLOUDY    68  66  94 CALM      29.93R
HONDO          TSTM      70  65  84 W7        29.91R
*UVALDE          N/A     72  64  78 E8        29.91S
DEL RIO        CLEAR     84  66  54 E14       29.83R
*LAUGHLIN AFB  CLEAR     82  66  58 E16       29.84R
*SPOFFORD      NOT AVBL
*EAGLE PASS    CLEAR     82  66  57 E14G20    29.84R
CARRIZO SPRGS  CLOUDY    82  68  61 E12G20    29.86R
$$

TXZ173-191>194-202-209-217>225-228-280600-
CENTRAL AND SOUTH CENTRAL TEXAS

CITY           SKY/WX    TMP DP  RH WIND       PRES   REMARKS
GEORGETOWN     TSTM      64  63  94 E7        29.96R
*TAYLOR        RAIN      65  63  92 E3        29.90F
AUSTIN/BERGSTM CLOUDY    67  64  90 S8        29.89S
AUSTIN/MABRY   CLOUDY    68  32  26 SE7       29.90F
*PFLUGERVILLE  CLOUDY    66  64  94 S6        29.91F
SAN MARCOS     CLOUDY    66  64  93 NE5       29.90F
NEW BRAUNFELS  CLOUDY    69  63  81 E9        29.88F
*RANDOLPH AFB  CLOUDY    74  70  87 SE7       29.88S
*SEGUIN        CLOUDY    67  64  91 NE6       29.93R
SAN ANTONIO    LGT RAIN  71  66  84 N5        29.88S
STINSON FIELD  LGT RAIN  71  68  90 CALM      29.83R
*KELLY FIELD   CLOUDY    72  68  87 N13       29.87R
*PLEASANTON    CLOUDY    73  64  71 SE9       29.93S
*KENEDY        CLOUDY    73  71  91 E14       29.95F
*LA GRANGE     CLOUDY    71  65  83 SE12      29.87F
*GIDDINGS      CLOUDY    67  63  87 S6        29.91F
*GONZALES      CLOUDY    69  65  85 SE9       29.87F
$$

TXZ163>164-176>182-195>201-210>213-226-227-235-280600-
SOUTHEAST TEXAS

CITY           SKY/WX    TMP DP  RH WIND       PRES   REMARKS
COLLEGE STN    CLOUDY    65  62  90 CALM      29.91F
*BRYAN         CLOUDY    67  65  93 S5        29.92F
*CALDWELL      NOT AVBL
*CROCKETT      NOT AVBL
*BRENHAM       CLOUDY    66  63  88 SE3       29.90F
HUNTSVILLE     CLOUDY    67  61  81 S12       29.90F
CONROE         CLOUDY    67  62  84 S6        29.91F
HOUSTON BUSH   CLOUDY    69  60  73 S6        29.90F
HOUSTON HOBBY  TSTM      71  65  81 S12       29.90F
*HOUSTON SW AP LGT RAIN  67  65  93 E5        29.94F
PEARLAND       LGT RAIN  71  64  78 SE15      29.92F
HOUSTON HOOKS  CLOUDY    66  60  81 CALM      29.90F
ELLINGTON FLD  MOCLDY    70  64  83 SE12      29.93F
SUGAR LAND     LGT RAIN  69  65  86 SE9       29.91F
*HOUSTON EXEC  CLOUDY    68  64  88 S10       29.92F
*CLEVELAND MUN CLOUDY    65  60  82 SW8G17    29.92F
*WHARTON       LGT RAIN  67  62  82 E9        29.97F
*COLUMBUS      FAIR      67  64  89 E8        29.90F
*EAGLE LAKE    LGT RAIN  70  65  82 SE12G20   29.90
$$

TXZ214>216-236>238-280600-
THE UPPER TEXAS COAST

CITY           SKY/WX    TMP DP  RH WIND       PRES   REMARKS
*ORANGE        CLOUDY    72  62  70 NW10G17   29.93F
PORT ARTHUR    CLOUDY    68  64  87 W8        29.92F
GALVESTON      CLOUDY    74  66  76 NW12      29.99R
ANGLETON       CLOUDY    69  65  86 N6        30.00F
*BAY CITY      CLOUDY    72  66  83 N8        30.02S
PALACIOS       CLOUDY    71  64  78 NE17      29.98F
$$

TXZ229>234-239>247-280600-
TEXAS COASTAL BEND AND RIO GRANDE PLAINS

CITY           SKY/WX    TMP DP  RH WIND       PRES   REMARKS
VICTORIA       CLOUDY    71  65  81 VRB7      30.00R
*BEEVILLE      TSTM      70  70  99 N22G33    30.00R VSB 3/4
ROCKPORT       CLOUDY    80  73  79 NE17      29.93R
*PORT ARANSAS  CLOUDY    80  74  82 E17G23    29.94R
*PORT LAVACA   CLOUDY    73  67  81 E15G25    29.98F
*INGLESIDE     CLOUDY    81  76  85 E14       29.92R
CORPUS CHRISTI CLOUDY    80  76  87 E14       29.91R
CORPUS NAS     MOCLDY    81  78  91 E17G23    29.91R
*ROBSTOWN      CLOUDY    78  74  90 E12       29.91R
ALICE          CLOUDY    78  74  87 NE16      29.90R
KINGSVILLE NAS MOCLDY    78  74  87 E12       29.87R
COTULLA        CLOUDY    82  72  71 E15       29.89R
LAREDO         CLOUDY    82  71  69 SE12      29.81R
$$

TXZ248>255-280600-
DEEP SOUTH TEXAS

CITY           SKY/WX    TMP DP  RH WIND       PRES   REMARKS
BROWNSVILLE    CLEAR     79  74  84 SE8       29.85R
PORT ISABEL    CLEAR     80  75  84 SE10      29.86R
HARLINGEN      CLEAR     76  73  91 E7        29.85R
*HEBBRONVILLE  CLEAR     77  66  68 SE8       29.86R
MCALLEN        CLEAR     78  72  81 SE10      29.84R
*WESLACO       PTCLDY    78  71  80 SE7       29.84
FALFURRIAS     NOT AVBL
EDINBURG       CLEAR     75  69  81 SE8       29.84S
*ZAPATA        NOT AVBL
$$

TXZ213>215-236>238-242>244-246-247-251-254-255-280600-
CMAN STATIONS

STATION/POSITION TIME  TEMP    WIND        PRES    WAVE
                       AIR SEA DIR/SP/G            HT/PER
                 (UTC) (F)     (DEG/KT/KT) (MB)    (FT/S)
SABINE PASS      0418   73 82  270/  5/  9 1015.9
NORTH JETTY/GLS  0418   74 81  330/ 20/ 23 1014.7
EAGLE POINT      0424   73 79  310/  6/ 11 1015.6
MORGANS POINT    0424   72 81  290/ 13/ 15 1015.8
PORT O`CONNOR    0418   80 85   50/ 16/ 18 1014.8
PORT ARANSAS     0500   80 83   60/ 20/ 21 1012.9
MALAQUITE BEACH  0424   81 91   90/ 17/ 21 1011.2
BAFFIN BAY       0418   80 84  100/ 15/ 18 1011.2
PORT ISABEL      0424   81 82  140/ 12/ 15 1012.9
$$



USA.gov is the U.S. government's official web portal to all federal, state and local government web resources and services.